[[{"header":{"parameterUnit":"m.s-1","parameterCategory":2,"la1":30.2991,"la2":30.254,"lo1":-89.0895,"lo2":-89.0444,"dy":0.0017,"dx":0.0017,"nx":28,"ny":28,"refTime":"2023-09-21T21:00:00:Z","depth":"0","parameterNumber":2,"parameterNumberName":"U-component_of_CURRENTS"},"data":[0,0,0,0,0,0,0,0,0,0,0,0,0,0,0,0,0,0,0,0,0,0,0,0,0,0,0,0,0,0,0,0,0,0,0,0,0,0,0,0,0,0,0,0,0,0,0,0,0,0,0,0,0,0,0,0,0,0,0.1894,0.1894,0,0.1889,0.1889,0.1889,0.1883,0.1883,0.1883,0.1883,0.1865,0.1864,0.1864,0,0,0,0,0,0,0,0,0,0,0,0,0,0.1885,0.1885,0.1894,0.1894,0.1895,0.1889,0.1889,0.1889,0.1883,0.1883,0.1883,0.1883,0.1865,0.1864,0.1864,0,0,0,0,0,0,0,0,0,0,0,0,0,0.1884,0.1885,0.1894,0.1892,0.1892,0.1889,0.1889,0.1889,0.1883,0.1883,0.1883,0.1883,0.1865,0.1865,0.1864,0.1856,0,0,0.1861,0.1861,0,0,0,0,0,0,0,0,0.1884,0.1884,0.1893,0.1892,0.1892,0.1889,0.1879,0.1878,0.1883,0.1884,0.1883,0.1883,0.1873,0.1871,0.1868,0.1856,0.1855,0.1861,0.1861,0.186,0.186,0,0,0,0,0,0,0,0.1884,0.1884,0.1891,0.1893,0.1893,0.1887,0.1887,0.1879,0.1876,0.1884,0.1884,0.1887,0.1872,0.1868,0.1867,0.1854,0.1861,0.186,0.186,0.186,0.1879,0.188,0,0,0,0,0,0,0.1889,0.1884,0.1891,0.1891,0.189,0.1887,0.1887,0.1888,0.1877,0.1876,0.1887,0.1886,0.187,0.1868,0.1867,0.1895,0.186,0.1859,0.1859,0.1878,0.1879,0.188,0,0,0,0,0,0,0.1889,0.1889,0.1891,0.1889,0.1889,0.1888,0.1889,0.1888,0.189,0.1879,0.1877,0.1891,0.187,0.1868,0.1872,0.1893,0.1859,0.1858,0.1876,0.1878,0.1879,0.1928,0,0,0,0,0,0,0.1888,0.1889,0.189,0.1889,0.1889,0.19,0.1889,0.1888,0.1892,0.1892,0.1882,0.188,0.187,0.1873,0.1871,0.1891,0.1858,0.1875,0.1877,0.1879,0.1926,0.1931,0.1936,0,0,0,0,0,0.1888,0.1891,0.189,0.1891,0.1891,0.1901,0.1901,0.1899,0.1893,0.19,0.1894,0.1881,0.1884,0.1873,0.187,0.1891,0.1874,0.1877,0.1879,0.1923,0.193,0.1936,0,0,0,0,0,0,0.1884,0.1891,0.189,0.1894,0.1902,0.1901,0.1905,0.1903,0.1903,0.1901,0.1888,0.1886,0.19,0.1888,0.1876,0.1903,0.1879,0.1881,0.1914,0.192,0.1926,0.1932,0.1857,0,0,0,0,0,0.1885,0.189,0.1897,0.1901,0.1906,0.1906,0.1908,0.191,0.191,0.191,0.1904,0.19,0.1906,0.1906,0.1906,0.1914,0.1923,0.1928,0.1934,0.1938,0.1943,0.1978,0.1988,0.1887,0.1887,0.1887,0,0,0.1883,0.1889,0.189,0.1901,0.1904,0.1919,0.1908,0.1918,0.193,0.1908,0.1919,0.1918,0.1913,0.1929,0.1935,0.1921,0.1974,0.1941,0.1945,0.1947,0.1982,0.1991,0.2,0.1889,0.1889,0.1888,0,0,0.1888,0.1889,0.1899,0.191,0.1924,0.1929,0.1935,0.1941,0.1945,0.1956,0.195,0.1963,0.1959,0.1969,0.1971,0.2005,0.2003,0.2005,0.2035,0.207,0.2079,0.2087,0.2123,0.2133,0.2006,0.2006,0.2006,0,0.1885,0.1897,0.1903,0.192,0.1929,0.1937,0.1952,0.1962,0.1969,0.1977,0.1967,0.1987,0.1981,0.2013,0.2026,0.2018,0.2037,0.201,0.2078,0.2086,0.2093,0.2128,0.2139,0.2009,0.2009,0.2008,0.2008,0,0.1901,0.1912,0.1921,0.1945,0.1958,0.1972,0.199,0.2006,0.2009,0.2018,0.2047,0.2045,0.206,0.2063,0.2052,0.2102,0.21,0.2083,0.2062,0.2106,0.214,0.2151,0.2013,0.2012,0.2011,0.201,0,0,0.1885,0.1923,0.1925,0.1941,0.1971,0.1983,0.2014,0.2043,0.2067,0.2079,0.2111,0.2125,0.2129,0.2132,0.2129,0.2154,0.222,0.214,0.2141,0.2178,0.2306,0.2302,0.2313,0.2217,0.2219,0.222,0.2315,0,0.1893,0.1925,0.1943,0.1975,0.1992,0.2016,0.2045,0.2074,0.2095,0.2131,0.2147,0.2174,0.2155,0.2167,0.2194,0.2214,0.2249,0.2197,0.2256,0.2258,0.225,0.2325,0.2249,0.2326,0.2325,0.2326,0.2328,0,0.1896,0.192,0.1948,0.1992,0.2002,0.2025,0.2073,0.2102,0.2158,0.2174,0.2212,0.2226,0.2276,0.2246,0.2318,0.2288,0.2304,0.2314,0.2318,0.2303,0.2274,0.228,0.2345,0.2309,0.2344,0.2342,0.2341,0,0.1874,0.192,0.1941,0.1955,0.2009,0.2029,0.206,0.2112,0.2139,0.2207,0.2244,0.2294,0.2332,0.2362,0.2395,0.2361,0.2475,0.2428,0.2444,0.2443,0.2385,0.2376,0.2421,0.2484,0.2484,0.2483,0.2483,0,0.187,0.1883,0.1934,0.1947,0.1978,0.2021,0.2059,0.2101,0.2163,0.2205,0.2267,0.2313,0.2364,0.243,0.2437,0.2493,0.2517,0.2472,0.2476,0.24,0.2393,0.236,0.2335,0.2487,0.2486,0.2485,0.2485,0,0.183,0.1865,0.189,0.1948,0.1965,0.1986,0.2046,0.2076,0.2154,0.2215,0.2242,0.2348,0.244,0.2501,0.2565,0.2557,0.2539,0.2606,0.252,0.2511,0.2459,0.2438,0.2402,0.2316,0.2629,0.263,0.263,0,0.1807,0.1819,0.1874,0.1887,0.1909,0.1948,0.1972,0.205,0.2082,0.2225,0.2252,0.2383,0.2451,0.2582,0.2607,0.2659,0.2574,0.2605,0.2517,0.2472,0.2453,0.2351,0.2272,0.2464,0.2463,0.2462,0.2462,0,0.1763,0.1782,0.1806,0.1835,0.186,0.1885,0.1931,0.1958,0.2058,0.2131,0.2234,0.231,0.2469,0.2504,0.2603,0.2609,0.2492,0.259,0.2565,0.2356,0.2226,0.2139,0.239,0.2455,0.2456,0.2456,0.2456,0.2457,0.1718,0.172,0.1754,0.1773,0.1798,0.1811,0.1806,0.1871,0.1924,0.2012,0.2139,0.2237,0.238,0.2509,0.2514,0.251,0.2455,0.2432,0.2423,0.2333,0.2209,0.2455,0.2506,0.2507,0.2508,0.2509,0.2509,0,0.1658,0.1669,0.1688,0.1702,0.1691,0.1733,0.1762,0.1747,0.1777,0.1915,0.1993,0.2163,0.2239,0.2352,0.2435,0.2364,0.2225,0.2303,0.2138,0.2073,0.2325,0.2277,0.2255,0.2256,0.2256,0.2256,0.2256,0.2256,0.1625,0.1617,0.1628,0.1589,0.1593,0.1546,0.1542,0.155,0.1623,0.1721,0.1835,0.1953,0.2199,0.2386,0.2379,0.2307,0.2104,0.2028,0.1995,0.2191,0.2201,0.2211,0.216,0.2115,0.2115,0.1643,0.164,0.1637]},{"header":{"parameterUnit":"m.s-1","parameterCategory":2,"la1":30.2991,"la2":30.254,"lo1":-89.0895,"lo2":-89.0444,"dy":0.0017,"dx":0.0017,"nx":28,"ny":28,"refTime":"2023-09-21T21:00:00:Z","depth":"0","parameterNumber":3,"parameterNumberName":"V-component_of_CURRENTS"},"data":[0,0,0,0,0,0,0,0,0,0,0,0,0,0,0,0,0,0,0,0,0,0,0,0,0,0,0,0,0,0,0,0,0,0,0,0,0,0,0,0,0,0,0,0,0,0,0,0,0,0,0,0,0,0,0,0,0,0,-0.0258,-0.0258,0,-0.0312,-0.0313,-0.0314,-0.0347,-0.0347,-0.0347,-0.0347,-0.0416,-0.0417,-0.0419,0,0,0,0,0,0,0,0,0,0,0,0,0,-0.0206,-0.0207,-0.0258,-0.0258,-0.0259,-0.0312,-0.0313,-0.0314,-0.0347,-0.0347,-0.0347,-0.0347,-0.0415,-0.0417,-0.0419,0,0,0,0,0,0,0,0,0,0,0,0,0,-0.0242,-0.0207,-0.0258,-0.0282,-0.0284,-0.0312,-0.0313,-0.0314,-0.0347,-0.0347,-0.0347,-0.0347,-0.0414,-0.0417,-0.0419,-0.0431,0,0,-0.0427,-0.0428,0,0,0,0,0,0,0,0,-0.0239,-0.0243,-0.0278,-0.028,-0.0283,-0.0323,-0.032,-0.0354,-0.0347,-0.0323,-0.0347,-0.0348,-0.0385,-0.039,-0.04,-0.0434,-0.0437,-0.0427,-0.0429,-0.043,-0.0431,0,0,0,0,0,0,0,-0.0237,-0.0241,-0.028,-0.0278,-0.0282,-0.0298,-0.0303,-0.0326,-0.0353,-0.0326,-0.0328,-0.0333,-0.0387,-0.0398,-0.0402,-0.0438,-0.0427,-0.043,-0.0431,-0.0432,-0.05,-0.05,0,0,0,0,0,0,-0.0228,-0.0239,-0.0278,-0.0281,-0.0261,-0.0299,-0.0304,-0.031,-0.0353,-0.0359,-0.0333,-0.0335,-0.0393,-0.0399,-0.0405,-0.043,-0.043,-0.0432,-0.0434,-0.0499,-0.05,-0.05,0,0,0,0,0,0,-0.0227,-0.0231,-0.0276,-0.0261,-0.0268,-0.0299,-0.0305,-0.0311,-0.0322,-0.0358,-0.0365,-0.0339,-0.0394,-0.0401,-0.0427,-0.0433,-0.0433,-0.0436,-0.0499,-0.05,-0.05,-0.0476,0,0,0,0,0,0,-0.0225,-0.023,-0.0231,-0.026,-0.0268,-0.0289,-0.0305,-0.0312,-0.0325,-0.0328,-0.0365,-0.0372,-0.0395,-0.0423,-0.043,-0.0436,-0.0438,-0.0499,-0.0499,-0.05,-0.0476,-0.0475,-0.0474,0,0,0,0,0,-0.0223,-0.0223,-0.023,-0.0235,-0.0268,-0.0289,-0.0295,-0.0318,-0.0325,-0.0329,-0.0356,-0.0371,-0.0431,-0.0426,-0.0433,-0.0441,-0.0499,-0.0499,-0.05,-0.0476,-0.0475,-0.0474,0,0,0,0,0,0,-0.02,-0.0227,-0.0236,-0.0243,-0.0263,-0.0295,-0.03,-0.0315,-0.0339,-0.0341,-0.0374,-0.0383,-0.0408,-0.0427,-0.042,-0.0462,-0.0468,-0.047,-0.0447,-0.0446,-0.0446,-0.0433,-0.044,0,0,0,0,0,-0.0194,-0.0201,-0.0229,-0.0234,-0.0241,-0.0269,-0.028,-0.0295,-0.0321,-0.0331,-0.0358,-0.0388,-0.0417,-0.0432,-0.0458,-0.048,-0.0493,-0.049,-0.0489,-0.0488,-0.0484,-0.0513,-0.0515,-0.0502,-0.0502,-0.0502,0,0,-0.0187,-0.0202,-0.0206,-0.0229,-0.0245,-0.0255,-0.0276,-0.029,-0.0301,-0.0335,-0.0356,-0.0384,-0.0421,-0.0448,-0.0461,-0.0464,-0.0497,-0.0489,-0.0488,-0.0484,-0.0514,-0.0515,-0.0516,-0.0503,-0.0502,-0.0502,0,0,-0.0174,-0.0187,-0.0189,-0.0202,-0.0224,-0.0241,-0.0243,-0.0273,-0.0289,-0.0312,-0.0342,-0.0372,-0.0412,-0.0442,-0.0462,-0.0472,-0.0491,-0.0482,-0.0469,-0.0498,-0.0499,-0.05,-0.0507,-0.0509,-0.0482,-0.0482,-0.0482,0,-0.0163,-0.0169,-0.0192,-0.0196,-0.0202,-0.0232,-0.0233,-0.0256,-0.0291,-0.0302,-0.0314,-0.0378,-0.041,-0.0447,-0.0454,-0.0469,-0.0481,-0.0469,-0.0496,-0.0498,-0.0499,-0.0507,-0.0509,-0.0481,-0.0481,-0.0481,-0.0481,0,-0.0153,-0.0157,-0.0157,-0.0172,-0.0182,-0.0187,-0.0217,-0.0231,-0.0251,-0.0276,-0.0313,-0.0359,-0.0395,-0.0416,-0.0439,-0.047,-0.0472,-0.049,-0.0496,-0.0499,-0.0506,-0.0509,-0.048,-0.048,-0.048,-0.0481,0,0,-0.0127,-0.0147,-0.0145,-0.0144,-0.0167,-0.0173,-0.0189,-0.0212,-0.0215,-0.0262,-0.0273,-0.0339,-0.0361,-0.0386,-0.0424,-0.0456,-0.0479,-0.0476,-0.0478,-0.0477,-0.0528,-0.0504,-0.0505,-0.0503,-0.0504,-0.0504,-0.0524,0,-0.0109,-0.0106,-0.0123,-0.0116,-0.0115,-0.0141,-0.0148,-0.0173,-0.0199,-0.0218,-0.0279,-0.0302,-0.0352,-0.0363,-0.0408,-0.0459,-0.0488,-0.0471,-0.053,-0.0531,-0.0506,-0.0508,-0.0495,-0.051,-0.0527,-0.0527,-0.0528,0,-0.009,-0.009,-0.0078,-0.0081,-0.0081,-0.008,-0.0086,-0.0099,-0.0138,-0.0159,-0.0204,-0.0243,-0.03,-0.0335,-0.043,-0.0417,-0.0468,-0.0511,-0.0513,-0.0501,-0.0514,-0.0513,-0.0515,-0.0644,-0.0533,-0.0532,-0.0532,0,-0.0051,-0.0055,-0.0041,-0.0043,-0.0053,-0.0046,-0.0051,-0.0076,-0.0072,-0.0117,-0.0111,-0.0197,-0.0215,-0.0309,-0.0396,-0.0414,-0.0487,-0.0523,-0.0549,-0.0548,-0.0552,-0.055,-0.0681,-0.0585,-0.0585,-0.0585,-0.0585,0,-0.0022,-0.0009,-0.0018,-0.0008,0.0019,-0.0003,0.0023,0.0003,-0.0007,0.0016,-0.0072,-0.0063,-0.0209,-0.0266,-0.0369,-0.0455,-0.0466,-0.0541,-0.0554,-0.0542,-0.0538,-0.0663,-0.074,-0.0586,-0.0585,-0.0585,-0.0585,0,0.0022,0.0012,0.0032,0.0033,0.004,0.0062,0.0084,0.0102,0.0084,0.0113,0.0109,0.0042,-0.0027,-0.0161,-0.0293,-0.0394,-0.0566,-0.0522,-0.0484,-0.0492,-0.0644,-0.072,-0.086,-0.0922,-0.0563,-0.0563,-0.0563,0,0.0044,0.0058,0.0075,0.0098,0.0104,0.0133,0.0159,0.0148,0.0177,0.0192,0.0217,0.0167,0.0151,-0.0035,-0.0223,-0.039,-0.0532,-0.0493,-0.0535,-0.0647,-0.0741,-0.0809,-0.0856,-0.0531,-0.053,-0.053,-0.053,0,0.009,0.0098,0.0117,0.0163,0.0196,0.0234,0.0273,0.0311,0.0319,0.0355,0.0401,0.0396,0.0236,0.0076,-0.0155,-0.0286,-0.0591,-0.0487,-0.0628,-0.0744,-0.0803,-0.0868,-0.0512,-0.0525,-0.0526,-0.0526,-0.0526,-0.0526,0.0133,0.0157,0.0186,0.0232,0.0273,0.0332,0.0372,0.0427,0.0494,0.0556,0.0547,0.0562,0.0323,0.0014,-0.0177,-0.0529,-0.0554,-0.0648,-0.0732,-0.0792,-0.0853,-0.0469,-0.0481,-0.0481,-0.0481,-0.0481,-0.0481,0,0.0185,0.0208,0.0252,0.0304,0.0357,0.0367,0.0446,0.0493,0.0586,0.0654,0.0699,0.0602,0.0305,-0.0019,-0.0476,-0.0734,-0.0857,-0.0887,-0.1006,-0.1046,-0.0723,-0.0723,-0.0757,-0.0757,-0.0756,-0.0756,-0.0756,-0.0756,0.0215,0.0263,0.0279,0.0366,0.0405,0.0473,0.0518,0.0597,0.0658,0.0735,0.0752,0.0741,0.0502,-0.0302,-0.0895,-0.1035,-0.1247,-0.1272,-0.1387,-0.1192,-0.1177,-0.1163,-0.1182,-0.1312,-0.1312,-0.1678,-0.1682,-0.1685]}],[{"header":{"parameterUnit":"m.s-1","parameterCategory":2,"la1":30.2991,"la2":30.254,"lo1":-89.0895,"lo2":-89.0444,"dy":0.0017,"dx":0.0017,"nx":28,"ny":28,"refTime":"2023-09-21T21:00:00:Z","depth":"2","parameterNumber":2,"parameterNumberName":"U-component_of_CURRENTS"},"data":[0,0,0,0,0,0,0,0,0,0,0,0,0,0,0,0,0,0,0,0,0,0,0,0,0,0,0,0,0,0,0,0,0,0,0,0,0,0,0,0,0,0,0,0,0,0,0,0,0,0,0,0,0,0,0,0,0,0,0.1924,0.1924,0,0.1923,0.1923,0.1923,0.1921,0.1921,0.1921,0.1921,0.1916,0.1916,0.1916,0,0,0,0,0,0,0,0,0,0,0,0,0,0.191,0.191,0.1924,0.1924,0.1924,0.1923,0.1923,0.1923,0.1921,0.1921,0.1921,0.1921,0.1916,0.1916,0.1916,0,0,0,0,0,0,0,0,0,0,0,0,0,0.1912,0.191,0.1924,0.1924,0.1924,0.1923,0.1923,0.1923,0.1921,0.1921,0.1921,0.1922,0.1917,0.1916,0.1916,0.191,0,0,0.1915,0.1914,0,0,0,0,0,0,0,0,0.1911,0.1912,0.1924,0.1924,0.1925,0.1924,0.1916,0.1919,0.1921,0.192,0.1921,0.1922,0.192,0.1919,0.1916,0.1909,0.1909,0.1915,0.1914,0.1914,0.1914,0,0,0,0,0,0,0,0.1911,0.1912,0.1921,0.1924,0.1925,0.192,0.1921,0.1917,0.1917,0.192,0.1921,0.1924,0.1919,0.1916,0.1916,0.1909,0.1915,0.1914,0.1914,0.1914,0.1947,0.1948,0,0,0,0,0,0,0.1916,0.1912,0.1922,0.1922,0.192,0.1921,0.1921,0.1922,0.1917,0.1917,0.1923,0.1924,0.1917,0.1916,0.1916,0.1952,0.1914,0.1914,0.1914,0.1946,0.1947,0.1948,0,0,0,0,0,0,0.1915,0.1916,0.1922,0.1918,0.1919,0.1921,0.1922,0.1922,0.1928,0.192,0.192,0.193,0.1917,0.1916,0.1927,0.195,0.1914,0.1913,0.1945,0.1946,0.1948,0.1997,0,0,0,0,0,0,0.1915,0.1916,0.192,0.1918,0.1919,0.1933,0.1922,0.1922,0.193,0.193,0.1926,0.1925,0.1917,0.1927,0.1926,0.1949,0.1913,0.1943,0.1945,0.1947,0.1994,0.2,0.2005,0,0,0,0,0,0.1914,0.1919,0.192,0.1921,0.1923,0.1934,0.1934,0.1934,0.193,0.1938,0.1937,0.1925,0.194,0.1928,0.1926,0.1949,0.1942,0.1945,0.1947,0.1991,0.1999,0.2005,0,0,0,0,0,0,0.1913,0.192,0.192,0.1926,0.1935,0.1934,0.194,0.194,0.1944,0.1944,0.1934,0.1934,0.1955,0.1944,0.1931,0.1966,0.1941,0.1944,0.1975,0.1982,0.1988,0.1995,0.1913,0,0,0,0,0,0.1915,0.1922,0.1928,0.1934,0.194,0.1941,0.1945,0.1947,0.195,0.1952,0.195,0.1952,0.1962,0.1966,0.1969,0.1982,0.1991,0.1999,0.2004,0.2009,0.2015,0.205,0.206,0.1957,0.1957,0.1957,0,0,0.1914,0.192,0.1923,0.1935,0.1939,0.1955,0.1944,0.1955,0.1971,0.1951,0.197,0.1971,0.1971,0.1992,0.2,0.1986,0.2045,0.2012,0.2016,0.202,0.2054,0.2064,0.2073,0.1958,0.1958,0.1958,0,0,0.1922,0.1925,0.1936,0.1948,0.1963,0.1967,0.1975,0.1982,0.1989,0.2005,0.2002,0.202,0.2022,0.2035,0.204,0.2078,0.2076,0.2079,0.2112,0.2147,0.2155,0.2163,0.2197,0.2207,0.2081,0.2081,0.2081,0,0.1922,0.1936,0.1942,0.196,0.197,0.1977,0.1993,0.2005,0.2016,0.2029,0.2019,0.205,0.2047,0.2085,0.2099,0.2093,0.2109,0.2085,0.2155,0.2162,0.217,0.2202,0.2213,0.2083,0.2083,0.2083,0.2083,0,0.194,0.1954,0.1963,0.1988,0.2002,0.2017,0.2037,0.2056,0.2062,0.2075,0.2111,0.2113,0.2133,0.2138,0.2127,0.2181,0.2176,0.2159,0.2137,0.2183,0.2214,0.2225,0.2087,0.2086,0.2085,0.2085,0,0,0.1927,0.1967,0.197,0.1987,0.2017,0.203,0.2065,0.2097,0.2126,0.2144,0.2181,0.2202,0.2207,0.2213,0.2211,0.2236,0.2301,0.222,0.222,0.2254,0.2383,0.2346,0.2354,0.2297,0.2299,0.23,0.2388,0,0.1937,0.1972,0.199,0.2024,0.2042,0.2067,0.2099,0.2133,0.2158,0.2199,0.2221,0.2252,0.2236,0.2248,0.2277,0.2296,0.2329,0.2279,0.2333,0.2335,0.2297,0.2365,0.2171,0.223,0.2398,0.24,0.2401,0,0.1943,0.1967,0.1998,0.2044,0.2054,0.2078,0.213,0.2163,0.2225,0.2246,0.229,0.2306,0.2361,0.2329,0.2403,0.2373,0.2385,0.2394,0.2398,0.2352,0.2317,0.221,0.2242,0.2419,0.2417,0.2416,0.2415,0,0.1922,0.197,0.1993,0.2008,0.2063,0.2084,0.2117,0.2176,0.2206,0.2281,0.2317,0.2375,0.2413,0.2444,0.2475,0.2443,0.2552,0.2508,0.2491,0.2488,0.2328,0.2308,0.2562,0.2562,0.2562,0.2561,0.2561,0,0.1918,0.1935,0.1987,0.2,0.2033,0.2078,0.2119,0.2165,0.2231,0.2275,0.2342,0.2387,0.2444,0.2508,0.2515,0.2553,0.2593,0.2517,0.2516,0.234,0.2322,0.2479,0.2469,0.2565,0.2564,0.2563,0.2563,0,0.1881,0.1917,0.1944,0.2003,0.2021,0.2044,0.2107,0.2139,0.2219,0.2283,0.231,0.2416,0.2497,0.256,0.2622,0.2607,0.2638,0.2637,0.2433,0.2405,0.2537,0.2528,0.262,0.262,0.262,0.2619,0.2619,0,0.186,0.1872,0.1929,0.1943,0.1966,0.2007,0.2033,0.2113,0.2149,0.2288,0.2315,0.2434,0.2484,0.2594,0.26,0.2635,0.2659,0.2462,0.2357,0.2557,0.2547,0.2538,0.253,0.2168,0.2164,0.2161,0.2159,0,0.1818,0.1838,0.1862,0.1892,0.1919,0.1946,0.1995,0.202,0.2122,0.219,0.2278,0.2335,0.2454,0.2404,0.2473,0.2454,0.2439,0.2397,0.2675,0.2184,0.2138,0.2126,0.2131,0.213,0.2133,0.2135,0.2137,0.2138,0.1776,0.1778,0.1812,0.1831,0.1858,0.1871,0.1868,0.1926,0.1973,0.2039,0.2156,0.2181,0.2233,0.2227,0.219,0.2171,0.2321,0.2201,0.2208,0.2219,0.2151,0.2107,0.2081,0.2083,0.2085,0.2087,0.2089,0,0.1714,0.1728,0.1747,0.1762,0.175,0.1795,0.1824,0.1801,0.1816,0.1901,0.1948,0.1841,0.1825,0.1878,0.1815,0.1838,0.1788,0.1752,0.1659,0.1691,0.1719,0.1621,0.1413,0.141,0.1408,0.1406,0,0,0.1682,0.1673,0.1683,0.1646,0.1651,0.1607,0.1603,0.1594,0.1627,0.1615,0.1613,0.173,0.1826,0.1587,0.158,0.1482,0.1565,0.1425,0.1975,0.1898,0.1921,0.1995,0.1884,0,0,0,0,0]},{"header":{"parameterUnit":"m.s-1","parameterCategory":2,"la1":30.2991,"la2":30.254,"lo1":-89.0895,"lo2":-89.0444,"dy":0.0017,"dx":0.0017,"nx":28,"ny":28,"refTime":"2023-09-21T21:00:00:Z","depth":"2","parameterNumber":3,"parameterNumberName":"V-component_of_CURRENTS"},"data":[0,0,0,0,0,0,0,0,0,0,0,0,0,0,0,0,0,0,0,0,0,0,0,0,0,0,0,0,0,0,0,0,0,0,0,0,0,0,0,0,0,0,0,0,0,0,0,0,0,0,0,0,0,0,0,0,0,0,-0.016,-0.0161,0,-0.0213,-0.0214,-0.0214,-0.025,-0.0251,-0.0251,-0.0251,-0.0323,-0.0324,-0.0326,0,0,0,0,0,0,0,0,0,0,0,0,0,-0.0112,-0.0113,-0.016,-0.0161,-0.0162,-0.0213,-0.0214,-0.0214,-0.025,-0.0251,-0.0251,-0.0251,-0.0322,-0.0324,-0.0326,0,0,0,0,0,0,0,0,0,0,0,0,0,-0.0146,-0.0113,-0.016,-0.0186,-0.0188,-0.0213,-0.0214,-0.0215,-0.025,-0.0251,-0.0251,-0.0251,-0.0322,-0.0324,-0.0326,-0.0334,0,0,-0.0334,-0.0335,0,0,0,0,0,0,0,0,-0.0144,-0.0148,-0.0181,-0.0184,-0.0187,-0.0225,-0.0223,-0.0256,-0.025,-0.0227,-0.0251,-0.0252,-0.0292,-0.0297,-0.0306,-0.0338,-0.0341,-0.0334,-0.0336,-0.0337,-0.0338,0,0,0,0,0,0,0,-0.0141,-0.0146,-0.0181,-0.0182,-0.0185,-0.0202,-0.0207,-0.0229,-0.0257,-0.0229,-0.0232,-0.0237,-0.0293,-0.0303,-0.0308,-0.0342,-0.0334,-0.0337,-0.0338,-0.0339,-0.0404,-0.0404,0,0,0,0,0,0,-0.0133,-0.0143,-0.018,-0.0183,-0.0166,-0.0202,-0.0208,-0.0213,-0.0256,-0.0263,-0.0237,-0.0239,-0.0299,-0.0305,-0.031,-0.0336,-0.0337,-0.0339,-0.0341,-0.0404,-0.0404,-0.0404,0,0,0,0,0,0,-0.0132,-0.0136,-0.0178,-0.0164,-0.0171,-0.0202,-0.0208,-0.0214,-0.0227,-0.0262,-0.0269,-0.0245,-0.0299,-0.0307,-0.0333,-0.0339,-0.034,-0.0343,-0.0404,-0.0404,-0.0404,-0.0379,0,0,0,0,0,0,-0.013,-0.0135,-0.0136,-0.0164,-0.0171,-0.019,-0.0208,-0.0214,-0.023,-0.0233,-0.0271,-0.0278,-0.03,-0.0329,-0.0336,-0.0342,-0.0345,-0.0403,-0.0404,-0.0404,-0.0379,-0.0378,-0.0377,0,0,0,0,0,-0.0128,-0.0128,-0.0136,-0.0141,-0.0172,-0.019,-0.0195,-0.0219,-0.0229,-0.0233,-0.0261,-0.0277,-0.0337,-0.0332,-0.0339,-0.0346,-0.0403,-0.0404,-0.0404,-0.038,-0.0378,-0.0377,0,0,0,0,0,0,-0.0108,-0.0132,-0.0142,-0.0149,-0.0167,-0.0196,-0.0202,-0.0218,-0.0242,-0.0246,-0.028,-0.0288,-0.0314,-0.0333,-0.0326,-0.0366,-0.0373,-0.0375,-0.0352,-0.0351,-0.035,-0.0341,-0.0347,0,0,0,0,0,-0.0103,-0.0109,-0.0134,-0.0139,-0.0146,-0.0173,-0.0184,-0.02,-0.0225,-0.0236,-0.0264,-0.0294,-0.0321,-0.0337,-0.0362,-0.0383,-0.0396,-0.0393,-0.0392,-0.0391,-0.0389,-0.0413,-0.0414,-0.0406,-0.0406,-0.0406,0,0,-0.0097,-0.011,-0.0115,-0.0135,-0.0151,-0.0157,-0.0181,-0.0195,-0.0204,-0.024,-0.0262,-0.029,-0.0325,-0.035,-0.0363,-0.0367,-0.0399,-0.0391,-0.039,-0.0389,-0.0414,-0.0415,-0.0415,-0.0406,-0.0406,-0.0406,0,0,-0.0085,-0.0098,-0.0099,-0.011,-0.0131,-0.0146,-0.0149,-0.0178,-0.0195,-0.0218,-0.0248,-0.0277,-0.0317,-0.0344,-0.0363,-0.037,-0.0391,-0.0381,-0.0371,-0.0395,-0.0395,-0.0396,-0.0406,-0.0408,-0.0382,-0.0382,-0.0382,0,-0.0076,-0.0079,-0.0101,-0.0103,-0.0108,-0.0138,-0.0136,-0.0159,-0.0194,-0.0207,-0.0221,-0.0286,-0.0314,-0.0349,-0.0354,-0.0368,-0.038,-0.0372,-0.0393,-0.0394,-0.0395,-0.0405,-0.0407,-0.0381,-0.0381,-0.0381,-0.0381,0,-0.0063,-0.0066,-0.0066,-0.0077,-0.0086,-0.0088,-0.0116,-0.0132,-0.0155,-0.018,-0.0219,-0.0265,-0.0301,-0.0319,-0.0341,-0.0368,-0.0373,-0.0386,-0.0393,-0.0394,-0.0405,-0.0407,-0.0379,-0.0379,-0.038,-0.038,0,0,-0.004,-0.0054,-0.0053,-0.005,-0.007,-0.0073,-0.0088,-0.0108,-0.0112,-0.0164,-0.0177,-0.024,-0.0268,-0.0291,-0.0327,-0.0357,-0.0375,-0.0375,-0.0377,-0.0379,-0.0419,-0.0399,-0.04,-0.0394,-0.0395,-0.0395,-0.042,0,-0.0021,-0.0013,-0.0027,-0.0018,-0.0013,-0.0039,-0.0043,-0.0067,-0.0095,-0.0116,-0.018,-0.0205,-0.0257,-0.0271,-0.0312,-0.0357,-0.0384,-0.0367,-0.0423,-0.0424,-0.0402,-0.0403,-0.038,-0.0398,-0.0423,-0.0423,-0.0424,0,-0.0001,0.0003,0.0017,0.002,0.002,0.0022,0.0017,0.0006,-0.0034,-0.0057,-0.0108,-0.0149,-0.0208,-0.0243,-0.0334,-0.0322,-0.0367,-0.0407,-0.0409,-0.0401,-0.0409,-0.0404,-0.0403,-0.0429,-0.0428,-0.0428,-0.0428,0,0.0034,0.0036,0.0052,0.0052,0.0048,0.0052,0.0049,0.0025,0.0029,-0.0019,-0.0017,-0.0105,-0.0129,-0.0217,-0.0302,-0.0318,-0.0388,-0.0418,-0.0443,-0.0442,-0.0438,-0.0435,-0.0474,-0.0474,-0.0473,-0.0473,-0.0473,0,0.0064,0.0077,0.0071,0.0082,0.0109,0.009,0.0114,0.0095,0.0085,0.0106,0.0018,0.0022,-0.0122,-0.0179,-0.0276,-0.0361,-0.0368,-0.0439,-0.0449,-0.0427,-0.0423,-0.0466,-0.0464,-0.0474,-0.0474,-0.0474,-0.0474,0,0.0102,0.0096,0.0117,0.0121,0.0127,0.0146,0.0168,0.0185,0.0167,0.0193,0.0186,0.0122,0.0051,-0.0082,-0.0206,-0.0303,-0.0399,-0.0423,-0.0381,-0.0386,-0.0447,-0.0444,-0.0467,-0.0466,-0.0466,-0.0465,-0.0465,0,0.0122,0.0136,0.0153,0.0175,0.018,0.0206,0.0232,0.0224,0.0252,0.0267,0.0292,0.0239,0.0218,0.0037,-0.0143,-0.0306,-0.0346,-0.0391,-0.0425,-0.0439,-0.0447,-0.0445,-0.0443,-0.041,-0.041,-0.0409,-0.0409,0,0.0163,0.0168,0.0188,0.0231,0.0262,0.0299,0.0337,0.0374,0.0385,0.0416,0.0461,0.0451,0.0295,0.0136,-0.0088,-0.0203,-0.0372,-0.0383,-0.0412,-0.0409,-0.0387,-0.0394,-0.0394,-0.0403,-0.0404,-0.0404,-0.0405,-0.0405,0.0198,0.0221,0.0248,0.0291,0.0331,0.039,0.0427,0.048,0.0543,0.0592,0.0587,0.057,0.0396,0.0114,-0.0078,-0.0298,-0.0302,-0.0395,-0.0397,-0.0399,-0.0382,-0.0359,-0.0367,-0.0367,-0.0367,-0.0368,-0.0368,0,0.0244,0.0265,0.0307,0.0356,0.0407,0.0418,0.0496,0.0536,0.062,0.0662,0.0692,0.0548,0.0382,0.0172,-0.014,-0.0321,-0.0354,-0.0383,-0.0389,-0.0392,-0.0395,-0.0379,-0.0363,-0.0364,-0.0364,-0.0365,0,0,0.0269,0.0314,0.033,0.0412,0.0449,0.0513,0.0557,0.0621,0.0661,0.0708,0.0699,0.0672,0.0437,0.0217,-0.0022,-0.02,-0.0264,-0.0238,-0.0222,-0.0205,-0.0206,-0.0379,-0.0353,0,0,0,0,0]}],[{"header":{"parameterUnit":"m.s-1","parameterCategory":2,"la1":30.2991,"la2":30.254,"lo1":-89.0895,"lo2":-89.0444,"dy":0.0017,"dx":0.0017,"nx":28,"ny":28,"refTime":"2023-09-21T21:00:00:Z","depth":"4","parameterNumber":2,"parameterNumberName":"U-component_of_CURRENTS"},"data":[0,0,0,0,0,0,0,0,0,0,0,0,0,0,0,0,0,0,0,0,0,0,0,0,0,0,0,0,0,0,0,0,0,0,0,0,0,0,0,0,0,0,0,0,0,0,0,0,0,0,0,0,0,0,0,0,0,0,0.1266,0.1266,0,0.1299,0.1299,0.1299,0.1338,0.1339,0.1339,0.134,0.1383,0.1383,0.1384,0,0,0,0,0,0,0,0,0,0,0,0,0,0.1222,0.1223,0.1266,0.1266,0.1267,0.1299,0.1299,0.1299,0.1338,0.1339,0.134,0.134,0.1383,0.1383,0.1384,0,0,0,0,0,0,0,0,0,0,0,0,0,0.1245,0.1223,0.1266,0.1291,0.1294,0.1299,0.1299,0.1299,0.1338,0.1339,0.134,0.1341,0.1383,0.1383,0.1384,0.1366,0,0,0.1386,0.1386,0,0,0,0,0,0,0,0,0.1244,0.1247,0.1287,0.1289,0.1292,0.1317,0.13,0.1323,0.1337,0.1319,0.134,0.1341,0.1362,0.1364,0.1366,0.1368,0.137,0.1386,0.1387,0.1387,0.1387,0,0,0,0,0,0,0,0.1242,0.1245,0.1277,0.1287,0.1291,0.1296,0.1301,0.1304,0.1333,0.1321,0.1324,0.133,0.1364,0.1365,0.1367,0.1371,0.1386,0.1387,0.1387,0.1387,0.1446,0.1447,0,0,0,0,0,0,0.1241,0.1244,0.1276,0.1278,0.1272,0.1296,0.1301,0.1307,0.1333,0.1338,0.1329,0.1332,0.1363,0.1366,0.1369,0.1428,0.1387,0.1388,0.1388,0.1445,0.1446,0.1447,0,0,0,0,0,0,0.124,0.1243,0.1275,0.1263,0.1268,0.1296,0.1302,0.1307,0.1338,0.1339,0.1345,0.1359,0.1364,0.1368,0.1398,0.1427,0.1388,0.1388,0.1443,0.1445,0.1447,0.1495,0,0,0,0,0,0,0.1238,0.1243,0.1259,0.1263,0.1269,0.1298,0.1301,0.1307,0.1339,0.1344,0.1366,0.137,0.1365,0.1397,0.1398,0.1427,0.1389,0.1442,0.1444,0.1446,0.1492,0.1498,0.1503,0,0,0,0,0,0.1237,0.1249,0.126,0.1265,0.1286,0.1299,0.1302,0.1324,0.134,0.1357,0.1374,0.1371,0.1412,0.1398,0.14,0.1429,0.1441,0.1444,0.1446,0.1489,0.1497,0.1503,0,0,0,0,0,0,0.1239,0.1254,0.1266,0.1284,0.1301,0.1306,0.1328,0.134,0.1366,0.1379,0.1381,0.1385,0.1424,0.1418,0.1403,0.1453,0.1427,0.143,0.146,0.1467,0.1472,0.1471,0.139,0,0,0,0,0,0.1246,0.1263,0.1276,0.1294,0.1305,0.1322,0.1336,0.135,0.1367,0.1381,0.1395,0.1412,0.1429,0.1443,0.1453,0.1476,0.1476,0.1497,0.1503,0.1508,0.1509,0.1536,0.1544,0.1456,0.1456,0.1456,0,0,0.1252,0.1265,0.1275,0.1297,0.1314,0.133,0.1334,0.1362,0.1382,0.138,0.142,0.1435,0.1441,0.1471,0.1487,0.1473,0.1535,0.1511,0.1515,0.1513,0.1539,0.1548,0.1555,0.1458,0.1457,0.1457,0,0,0.1262,0.1286,0.1301,0.1318,0.1347,0.1355,0.137,0.1392,0.1413,0.1445,0.1453,0.1485,0.1508,0.1518,0.1525,0.1567,0.1566,0.1579,0.1606,0.1633,0.164,0.1646,0.1665,0.1673,0.158,0.158,0.158,0,0.1272,0.129,0.1309,0.1327,0.1343,0.137,0.1387,0.1408,0.1439,0.1457,0.1468,0.1516,0.1528,0.1558,0.158,0.158,0.1594,0.1579,0.164,0.1646,0.1652,0.167,0.1677,0.1583,0.1582,0.1582,0.1582,0,0.1283,0.1309,0.1322,0.1352,0.1372,0.1395,0.142,0.1451,0.1482,0.15,0.1549,0.1566,0.1594,0.1609,0.1611,0.166,0.1657,0.1646,0.1622,0.1664,0.168,0.1687,0.1587,0.1586,0.1585,0.1584,0,0,0.1269,0.1319,0.1326,0.1347,0.1388,0.1403,0.1442,0.1477,0.1511,0.1548,0.1587,0.1627,0.1646,0.1655,0.1667,0.1694,0.1755,0.1696,0.1696,0.1713,0.1818,0.1721,0.172,0.1761,0.1763,0.1764,0.1815,0,0.1274,0.1308,0.1332,0.1371,0.139,0.1427,0.146,0.1499,0.154,0.1587,0.1616,0.1661,0.1661,0.1691,0.1717,0.1746,0.1776,0.1742,0.1776,0.1777,0.1684,0.1725,0.1768,0.182,0.1822,0.1823,0.1824,0,0.1268,0.1295,0.1331,0.1383,0.1397,0.1428,0.1488,0.1524,0.1589,0.1623,0.1669,0.1695,0.1746,0.1742,0.1803,0.1786,0.1811,0.1827,0.1829,0.1724,0.1693,0.1768,0.1837,0.1836,0.1835,0.1834,0.1833,0,0.1235,0.1291,0.1322,0.134,0.1402,0.1434,0.1476,0.154,0.1576,0.1658,0.1694,0.1745,0.1789,0.1819,0.1858,0.1843,0.1923,0.1897,0.183,0.1823,0.1874,0.1866,0.1945,0.1945,0.1945,0.1945,0.1945,0,0.1213,0.1241,0.1318,0.1333,0.1378,0.1432,0.1489,0.1539,0.1612,0.1653,0.1719,0.1751,0.1818,0.1863,0.188,0.1876,0.194,0.184,0.1831,0.1894,0.1888,0.1879,0.1871,0.1947,0.1947,0.1946,0.1946,0,0.1164,0.1215,0.1255,0.1334,0.1363,0.14,0.1489,0.1525,0.161,0.1666,0.1695,0.1779,0.1837,0.1886,0.1948,0.19,0.1908,0.1897,0.1972,0.1966,0.1784,0.1778,0.1806,0.1803,0.18,0.1798,0.1796,0,0.1137,0.1156,0.1247,0.1276,0.1317,0.1383,0.1422,0.1513,0.1548,0.1663,0.1675,0.1771,0.1815,0.1816,0.1882,0.1901,0.1888,0.1874,0.1812,0.1782,0.1771,0.1769,0.1766,0.1792,0.1792,0.1791,0.179,0,0.1087,0.1134,0.1169,0.123,0.128,0.1322,0.1389,0.1399,0.1499,0.1588,0.1615,0.1645,0.1713,0.175,0.1792,0.18,0.1863,0.1847,0.1852,0.1793,0.1766,0.1757,0.1758,0.1782,0.1783,0.1784,0.1784,0,0.1056,0.107,0.113,0.117,0.1228,0.1242,0.1284,0.1323,0.1365,0.1483,0.1493,0.1596,0.1692,0.17,0.1732,0.1739,0.1706,0.164,0.1654,0.1665,0.1596,0.1539,0.1482,0,0,0,0,0,0.1017,0.1027,0.1064,0.1101,0.1152,0.1186,0.1252,0.1294,0.1385,0.1367,0.1423,0.1476,0.152,0.1578,0.1557,0.168,0.1719,0.1649,0.1652,0.1733,0.1743,0.1676,0,0,0,0,0,0,0.0992,0.1028,0.1039,0.1033,0.1047,0.1089,0.1126,0.1187,0.1181,0.1281,0.1315,0.1396,0.1466,0.1524,0.1534,0.1553,0.1525,0.1719,0.1715,0.1727,0.1737,0.1745,0.1679,0,0,0,0,0]},{"header":{"parameterUnit":"m.s-1","parameterCategory":2,"la1":30.2991,"la2":30.254,"lo1":-89.0895,"lo2":-89.0444,"dy":0.0017,"dx":0.0017,"nx":28,"ny":28,"refTime":"2023-09-21T21:00:00:Z","depth":"4","parameterNumber":3,"parameterNumberName":"V-component_of_CURRENTS"},"data":[0,0,0,0,0,0,0,0,0,0,0,0,0,0,0,0,0,0,0,0,0,0,0,0,0,0,0,0,0,0,0,0,0,0,0,0,0,0,0,0,0,0,0,0,0,0,0,0,0,0,0,0,0,0,0,0,0,0,0.0019,0.0018,0,-0.0017,-0.0017,-0.0018,-0.0041,-0.0041,-0.0041,-0.0041,-0.0078,-0.0079,-0.008,0,0,0,0,0,0,0,0,0,0,0,0,0,0.0045,0.0045,0.0019,0.0018,0.0018,-0.0017,-0.0017,-0.0018,-0.0041,-0.0041,-0.0041,-0.0041,-0.0078,-0.0079,-0.008,0,0,0,0,0,0,0,0,0,0,0,0,0,0.0024,0.0045,0.0019,0.0002,0.0,-0.0017,-0.0017,-0.0018,-0.0041,-0.0041,-0.0041,-0.0042,-0.0078,-0.0079,-0.008,-0.0084,0,0,-0.0084,-0.0085,0,0,0,0,0,0,0,0,0.0025,0.0023,0.0005,0.0003,0.0001,-0.0025,-0.0022,-0.004,-0.0041,-0.0026,-0.0041,-0.0042,-0.006,-0.0063,-0.0069,-0.0086,-0.0088,-0.0084,-0.0085,-0.0086,-0.0086,0,0,0,0,0,0,0,0.0027,0.0024,0.0004,0.0005,0.0002,-0.0011,-0.0014,-0.0025,-0.0042,-0.0027,-0.0029,-0.0032,-0.0061,-0.0068,-0.007,-0.0088,-0.0084,-0.0085,-0.0086,-0.0087,-0.0098,-0.0097,0,0,0,0,0,0,0.0033,0.0026,0.0005,0.0003,0.0013,-0.0011,-0.0014,-0.0016,-0.0041,-0.0045,-0.0032,-0.0033,-0.0066,-0.0069,-0.0072,-0.0063,-0.0086,-0.0087,-0.0087,-0.0098,-0.0098,-0.0097,0,0,0,0,0,0,0.0034,0.0032,0.0007,0.0014,0.001,-0.0011,-0.0013,-0.0017,-0.0025,-0.0045,-0.0049,-0.0036,-0.0066,-0.007,-0.0079,-0.0065,-0.0087,-0.0088,-0.0099,-0.0098,-0.0097,-0.0056,0,0,0,0,0,0,0.0035,0.0032,0.0033,0.0014,0.001,0.0001,-0.0013,-0.0017,-0.0026,-0.0028,-0.005,-0.0054,-0.0067,-0.0076,-0.008,-0.0068,-0.009,-0.0099,-0.0099,-0.0098,-0.0058,-0.0054,-0.005,0,0,0,0,0,0.0036,0.004,0.0033,0.0031,0.0012,0.0001,-0.0002,-0.0018,-0.0026,-0.0026,-0.0041,-0.0053,-0.0073,-0.0077,-0.0081,-0.0069,-0.01,-0.0099,-0.0098,-0.0059,-0.0054,-0.005,0,0,0,0,0,0,0.0051,0.0037,0.003,0.0029,0.0018,-0.0002,-0.0004,-0.0016,-0.0028,-0.003,-0.005,-0.0055,-0.0058,-0.0069,-0.0074,-0.0069,-0.0087,-0.0087,-0.0056,-0.0052,-0.0048,-0.0033,-0.0091,0,0,0,0,0,0.0056,0.0055,0.0039,0.0038,0.0034,0.0015,0.0008,-0.0002,-0.0016,-0.0022,-0.0036,-0.0049,-0.0056,-0.0059,-0.0071,-0.0069,-0.0086,-0.0063,-0.0059,-0.0056,-0.0046,-0.0061,-0.0058,-0.0094,-0.0094,-0.0094,0,0,0.0062,0.0054,0.0053,0.0042,0.0032,0.0034,0.0011,0.0004,0.0008,-0.0023,-0.0022,-0.004,-0.0054,-0.0052,-0.0054,-0.006,-0.0057,-0.0055,-0.0052,-0.0043,-0.006,-0.0056,-0.0053,-0.0093,-0.0093,-0.0093,0,0,0.0077,0.0067,0.0073,0.0068,0.0055,0.0046,0.0046,0.0028,0.0022,0.0018,-0.0001,-0.0008,-0.0023,-0.0026,-0.003,-0.0012,-0.004,-0.0018,0.0018,0.0003,0.0006,0.0008,-0.0018,-0.0019,-0.0012,-0.0011,-0.0011,0,0.0086,0.0091,0.0074,0.008,0.0082,0.0056,0.0067,0.0058,0.004,0.0042,0.0025,0.0013,-0.0006,0.0007,0.0011,-0.0003,-0.0022,0.0002,0.0008,0.001,0.0012,-0.0016,-0.0017,-0.0009,-0.001,-0.001,-0.001,0,0.0107,0.0112,0.0116,0.0119,0.0118,0.0122,0.0111,0.0108,0.0096,0.0089,0.0091,0.0066,0.006,0.0054,0.0037,0.0046,0.0024,0.001,-0.0002,0.0018,-0.0013,-0.0014,-0.0006,-0.0007,-0.0008,-0.0008,0,0,0.0128,0.0131,0.0134,0.0144,0.014,0.0144,0.0153,0.0159,0.0169,0.0152,0.0166,0.0151,0.0131,0.0126,0.0103,0.0094,0.0078,0.006,0.0058,0.0036,0.0034,0.0005,0.0,0.0063,0.0064,0.0064,0.0005,0,0.0152,0.0175,0.0171,0.0198,0.021,0.0199,0.0213,0.0214,0.0207,0.0211,0.0193,0.0191,0.0161,0.0154,0.0141,0.0096,0.0078,0.0095,0.0017,0.0015,-0.0012,-0.0001,0.0065,0.0003,0.0003,0.0003,0.0002,0,0.0177,0.019,0.022,0.0242,0.0248,0.0261,0.0282,0.0291,0.029,0.0284,0.028,0.0253,0.0241,0.0204,0.0149,0.016,0.0101,0.0064,0.006,0.0021,-0.0017,-0.002,-0.0001,-0.0001,-0.0001,-0.0,-0.0,0,0.0203,0.0227,0.0255,0.0261,0.028,0.0295,0.0307,0.0315,0.033,0.0327,0.033,0.0308,0.029,0.0233,0.0146,0.0145,0.0074,0.006,-0.002,-0.0023,0.0002,-0.0,0.0016,0.0016,0.0016,0.0016,0.0016,0,0.023,0.0254,0.0269,0.0284,0.0322,0.0326,0.0363,0.0368,0.0381,0.0403,0.0368,0.0367,0.0295,0.024,0.0162,0.0066,0.0081,-0.001,-0.0036,0.0018,0.0019,-0.0001,-0.0002,0.0014,0.0014,0.0015,0.0015,0,0.0251,0.0261,0.0294,0.0321,0.0334,0.036,0.0398,0.0421,0.0428,0.0451,0.045,0.0411,0.0335,0.0249,0.0147,0.0083,-0.0005,-0.005,0.0009,-0.0014,-0.0097,-0.0095,-0.0132,-0.0134,-0.0135,-0.0136,-0.0137,0,0.0261,0.0279,0.0318,0.0339,0.0352,0.0391,0.0418,0.0442,0.0464,0.0474,0.0484,0.0421,0.0377,0.0223,0.0124,-0.0025,-0.0053,-0.0098,-0.0087,-0.0088,-0.011,-0.0106,-0.0103,-0.0139,-0.0139,-0.0139,-0.014,0,0.028,0.0292,0.0317,0.0358,0.0391,0.0432,0.0471,0.049,0.0515,0.0525,0.0506,0.0426,0.0335,0.0216,0.0091,-0.0014,-0.006,-0.0111,-0.0109,-0.0099,-0.0096,-0.0116,-0.0111,-0.0144,-0.0143,-0.0143,-0.0143,0,0.029,0.0307,0.0335,0.0371,0.0415,0.0453,0.0477,0.0499,0.0522,0.0532,0.0522,0.043,0.0384,0.0218,0.0109,-0.0001,-0.0028,-0.0056,-0.0057,-0.0054,-0.0016,0.0,-0.0035,0,0,0,0,0,0.0295,0.031,0.0345,0.0382,0.0425,0.045,0.0502,0.0521,0.0545,0.0536,0.0531,0.0444,0.0286,0.0221,0.0105,0.0073,-0.0057,-0.0068,-0.0092,-0.0167,-0.0162,-0.0134,0,0,0,0,0,0,0.0296,0.0326,0.034,0.0381,0.0406,0.0456,0.0488,0.0507,0.0502,0.0513,0.0431,0.0408,0.0251,0.0347,0.0099,0.0066,0.0035,-0.0137,-0.0139,-0.017,-0.0165,-0.0161,-0.0131,0,0,0,0,0]}]]